{"data":{"norad_id":56192,"epoch":"2026-05-25T03:29:03.685920Z","epoch_age_seconds":62399,"freshness":"FRESH","line1":"1 56192U 23054Q   26145.14518155  .00004270  00000+0  16885-3 0  9998","line2":"2 56192  97.3810  34.9401 0011151 289.2943  70.7089 15.25962312172681","mean_motion":15.25962312,"eccentricity":0.0011151,"inclination_deg":97.381,"raan_deg":34.9401,"arg_perigee_deg":289.2943,"mean_anomaly_deg":70.7089,"bstar":0.00016885,"rev_number":17268,"period_min":94.366681842402,"perigee_km":480.24099976154,"apogee_km":495.55362949002,"semimajor_km":6866.0343146258,"source":"CELESTRAK","updated_at":"2026-05-25T13:37:59.397416Z"}}